MRN77 LEXJ-LEAS

Flight info

Callsign MRN77
Flight time 0h 37m
Altitude 8000
Route OBETO DCT AMAKA
Aircraft C208/L-SDFGR/C

Departure

Time 2026-05-08 15:23
Airport Seve Ballesteros-Santander Airport (LEXJ)

Arrival

Time 2026-05-08 16:00
Airport Asturias Airport (LEAS)
Time Latitude Longitude Altitude Speed Heading
2026-05-08 15:07 43.42444 -3.82536 17 ft 0 kts 290°
2026-05-08 15:18 43.42445 -3.82538 17 ft 2 kts 290°
2026-05-08 15:18 43.42465 -3.82501 9 ft 12 kts 68°
2026-05-08 15:18 43.42448 -3.82360 17 ft 16 kts 109°
2026-05-08 15:18 43.42403 -3.82195 17 ft 16 kts 112°
2026-05-08 15:19 43.42410 -3.82105 17 ft 8 kts 28°
2026-05-08 15:19 43.42491 -3.82065 17 ft 17 kts 20°
2026-05-08 15:19 43.42516 -3.81920 17 ft 20 kts 104°
2026-05-08 15:19 43.42459 -3.81706 17 ft 27 kts 110°
2026-05-08 15:20 43.42391 -3.81453 18 ft 23 kts 110°
2026-05-08 15:20 43.42410 -3.81335 18 ft 8 kts 28°
2026-05-08 15:20 43.42426 -3.81326 18 ft 0 kts 19°
2026-05-08 15:22 43.42472 -3.81305 20 ft 16 kts 15°
2026-05-08 15:22 43.42518 -3.81331 21 ft 6 kts 300°
2026-05-08 15:22 43.42551 -3.81439 20 ft 33 kts 292°
2026-05-08 15:22 43.42699 -3.81970 33 ft 81 kts 290°
2026-05-08 15:23 43.42905 -3.82794 158 ft 105 kts 291°
2026-05-08 15:23 43.43179 -3.83804 387 ft 118 kts 291°
2026-05-08 15:23 43.43488 -3.84891 641 ft 125 kts 291°
2026-05-08 15:23 43.43793 -3.86054 866 ft 127 kts 290°
2026-05-08 15:24 43.44091 -3.87162 1229 ft 124 kts 290°
2026-05-08 15:24 43.44403 -3.88284 1490 ft 125 kts 289°
2026-05-08 15:24 43.44712 -3.89406 1742 ft 126 kts 290°
2026-05-08 15:24 43.44976 -3.90566 1986 ft 128 kts 278°
2026-05-08 15:25 43.45053 -3.91789 2242 ft 129 kts 272°
2026-05-08 15:25 43.45119 -3.93025 2486 ft 130 kts 272°
2026-05-08 15:25 43.45193 -3.94265 2730 ft 130 kts 272°
2026-05-08 15:25 43.45268 -3.95511 2979 ft 131 kts 271°
2026-05-08 15:26 43.45345 -3.96760 3240 ft 131 kts 271°
2026-05-08 15:26 43.45423 -3.98020 3502 ft 132 kts 270°
2026-05-08 15:26 43.45498 -3.99284 3769 ft 134 kts 270°
2026-05-08 15:26 43.45577 -4.00568 4015 ft 136 kts 269°
2026-05-08 15:27 43.45662 -4.01870 4270 ft 137 kts 269°
2026-05-08 15:27 43.45746 -4.03186 4531 ft 139 kts 269°
2026-05-08 15:27 43.45831 -4.04516 4787 ft 140 kts 268°
2026-05-08 15:27 43.45914 -4.05850 5034 ft 140 kts 268°
2026-05-08 15:28 43.45999 -4.07211 5295 ft 141 kts 268°
2026-05-08 15:28 43.46083 -4.08562 5544 ft 142 kts 268°
2026-05-08 15:28 43.46167 -4.09913 5797 ft 142 kts 268°
2026-05-08 15:28 43.46250 -4.11263 6050 ft 141 kts 268°
2026-05-08 15:29 43.46333 -4.12605 6297 ft 140 kts 268°
2026-05-08 15:29 43.46416 -4.13941 6543 ft 140 kts 268°
2026-05-08 15:29 43.46497 -4.15273 6791 ft 140 kts 267°
2026-05-08 15:29 43.46578 -4.16606 7036 ft 140 kts 267°
2026-05-08 15:30 43.46659 -4.17938 7282 ft 140 kts 267°
2026-05-08 15:30 43.46741 -4.19271 7530 ft 140 kts 267°
2026-05-08 15:30 43.46821 -4.20605 7780 ft 140 kts 267°
2026-05-08 15:30 43.46903 -4.21939 8033 ft 140 kts 267°
2026-05-08 15:31 43.46983 -4.23280 8258 ft 142 kts 266°
2026-05-08 15:31 43.47066 -4.24652 8462 ft 145 kts 266°
2026-05-08 15:31 43.47149 -4.26046 8668 ft 147 kts 267°
2026-05-08 15:31 43.47235 -4.27459 8861 ft 150 kts 266°
2026-05-08 15:32 43.47320 -4.28960 8852 ft 164 kts 268°
2026-05-08 15:32 43.47417 -4.30562 8848 ft 172 kts 268°
2026-05-08 15:32 43.47518 -4.32222 8845 ft 176 kts 268°
2026-05-08 15:32 43.47622 -4.33917 8845 ft 179 kts 268°
2026-05-08 15:33 43.47722 -4.35633 8843 ft 180 kts 268°
2026-05-08 15:33 43.47822 -4.37356 8843 ft 181 kts 268°
2026-05-08 15:33 43.47920 -4.39086 8841 ft 181 kts 268°
2026-05-08 15:33 43.48020 -4.40819 8845 ft 182 kts 268°
2026-05-08 15:34 43.48118 -4.42554 8838 ft 182 kts 268°
2026-05-08 15:34 43.48217 -4.44293 8839 ft 182 kts 268°
2026-05-08 15:34 43.48315 -4.46031 8846 ft 182 kts 268°
2026-05-08 15:34 43.48413 -4.47773 8845 ft 183 kts 269°
2026-05-08 15:35 43.48511 -4.49518 8848 ft 183 kts 269°
2026-05-08 15:35 43.48609 -4.51257 8860 ft 182 kts 269°
2026-05-08 15:35 43.48700 -4.52991 8867 ft 181 kts 268°
2026-05-08 15:35 43.48790 -4.54722 8872 ft 181 kts 268°
2026-05-08 15:36 43.48881 -4.56456 8875 ft 182 kts 269°
2026-05-08 15:36 43.48974 -4.58188 8882 ft 181 kts 269°
2026-05-08 15:36 43.49068 -4.59920 8890 ft 181 kts 269°
2026-05-08 15:36 43.49162 -4.61652 8891 ft 181 kts 269°
2026-05-08 15:37 43.49257 -4.63385 8893 ft 181 kts 269°
2026-05-08 15:37 43.49350 -4.65120 8891 ft 181 kts 269°
2026-05-08 15:37 43.49445 -4.66851 8896 ft 182 kts 269°
2026-05-08 15:37 43.49539 -4.68585 8896 ft 182 kts 269°
2026-05-08 15:38 43.49635 -4.70321 8897 ft 182 kts 269°
2026-05-08 15:38 43.49729 -4.72063 8898 ft 182 kts 269°
2026-05-08 15:38 43.49824 -4.73805 8893 ft 183 kts 269°
2026-05-08 15:38 43.49917 -4.75547 8890 ft 182 kts 269°
2026-05-08 15:39 43.50011 -4.77286 8887 ft 182 kts 269°
2026-05-08 15:39 43.50105 -4.79022 8892 ft 182 kts 269°
2026-05-08 15:39 43.50198 -4.80763 8897 ft 182 kts 269°
2026-05-08 15:39 43.50290 -4.82503 8889 ft 182 kts 269°
2026-05-08 15:40 43.50383 -4.84243 8893 ft 182 kts 269°
2026-05-08 15:40 43.50475 -4.85980 8889 ft 182 kts 269°
2026-05-08 15:40 43.50567 -4.87716 8883 ft 181 kts 269°
2026-05-08 15:40 43.50659 -4.89446 8886 ft 181 kts 269°
2026-05-08 15:41 43.50749 -4.91175 8891 ft 181 kts 269°
2026-05-08 15:41 43.50840 -4.92905 8887 ft 181 kts 269°
2026-05-08 15:41 43.50929 -4.94633 8885 ft 181 kts 268°
2026-05-08 15:41 43.51019 -4.96361 8887 ft 181 kts 268°
2026-05-08 15:42 43.51106 -4.98085 8890 ft 181 kts 268°
2026-05-08 15:42 43.51196 -4.99812 8886 ft 180 kts 269°
2026-05-08 15:42 43.51286 -5.01534 8887 ft 180 kts 268°
2026-05-08 15:42 43.51375 -5.03256 8885 ft 180 kts 268°
2026-05-08 15:43 43.51465 -5.04980 8884 ft 180 kts 268°
2026-05-08 15:43 43.51553 -5.06700 8885 ft 180 kts 268°
2026-05-08 15:43 43.51641 -5.08420 8882 ft 180 kts 268°
2026-05-08 15:43 43.51729 -5.10138 8882 ft 180 kts 268°
2026-05-08 15:44 43.51816 -5.11857 8883 ft 180 kts 268°
2026-05-08 15:44 43.51903 -5.13575 8881 ft 180 kts 268°
2026-05-08 15:44 43.51990 -5.15294 8881 ft 180 kts 268°
2026-05-08 15:44 43.52076 -5.17013 8884 ft 180 kts 268°
2026-05-08 15:45 43.52162 -5.18733 8877 ft 180 kts 268°
2026-05-08 15:45 43.52248 -5.20452 8879 ft 180 kts 269°
2026-05-08 15:45 43.52334 -5.22172 8879 ft 180 kts 269°
2026-05-08 15:45 43.52420 -5.23915 8875 ft 180 kts 269°
2026-05-08 15:46 43.52505 -5.25635 8877 ft 180 kts 269°
2026-05-08 15:46 43.52590 -5.27335 8876 ft 180 kts 269°
2026-05-08 15:46 43.52675 -5.29057 8874 ft 180 kts 268°
2026-05-08 15:46 43.52759 -5.30804 8809 ft 183 kts 268°
2026-05-08 15:47 43.52839 -5.32572 8604 ft 190 kts 269°
2026-05-08 15:47 43.52927 -5.34420 8389 ft 185 kts 269°
2026-05-08 15:47 43.53020 -5.36082 8174 ft 165 kts 269°
2026-05-08 15:47 43.53098 -5.37614 7968 ft 156 kts 268°
2026-05-08 15:48 43.53223 -5.40559 7557 ft 153 kts 268°
2026-05-08 15:48 43.53284 -5.42026 7345 ft 154 kts 268°
2026-05-08 15:48 43.53347 -5.43508 7126 ft 156 kts 268°
2026-05-08 15:49 43.53409 -5.45013 6905 ft 158 kts 268°
2026-05-08 15:49 43.53474 -5.46531 6689 ft 159 kts 268°
2026-05-08 15:49 43.53539 -5.48053 6467 ft 159 kts 268°
2026-05-08 15:49 43.53605 -5.49577 6247 ft 159 kts 268°
2026-05-08 15:50 43.53669 -5.51101 6011 ft 159 kts 268°
2026-05-08 15:50 43.53732 -5.52627 5784 ft 160 kts 268°
2026-05-08 15:50 43.53796 -5.54158 5553 ft 160 kts 268°
2026-05-08 15:50 43.53860 -5.55691 5320 ft 160 kts 269°
2026-05-08 15:51 43.53925 -5.57228 5092 ft 161 kts 269°
2026-05-08 15:51 43.53992 -5.58753 4981 ft 155 kts 269°
2026-05-08 15:51 43.54054 -5.60205 4945 ft 149 kts 269°
2026-05-08 15:51 43.54052 -5.61598 4935 ft 142 kts 251°
2026-05-08 15:52 43.53496 -5.62646 4936 ft 135 kts 223°
2026-05-08 15:52 43.52826 -5.63548 4932 ft 134 kts 221°
2026-05-08 15:52 43.52141 -5.64415 4924 ft 133 kts 219°
2026-05-08 15:52 43.51451 -5.65265 4925 ft 133 kts 219°
2026-05-08 15:53 43.50742 -5.66129 4931 ft 140 kts 219°
2026-05-08 15:53 43.49990 -5.67035 4932 ft 148 kts 219°
2026-05-08 15:53 43.49234 -5.68054 4929 ft 156 kts 231°
2026-05-08 15:53 43.48737 -5.69415 4930 ft 162 kts 248°
2026-05-08 15:54 43.48511 -5.70953 4922 ft 166 kts 263°
2026-05-08 15:54 43.48614 -5.72549 4922 ft 169 kts 277°
2026-05-08 15:54 43.48947 -5.74110 4923 ft 171 kts 286°
2026-05-08 15:54 43.49382 -5.75632 4926 ft 171 kts 289°
2026-05-08 15:55 43.49844 -5.77148 4755 ft 173 kts 290°
2026-05-08 15:55 43.50737 -5.80175 3912 ft 168 kts 285°
2026-05-08 15:55 43.51118 -5.81691 3549 ft 166 kts 286°
2026-05-08 15:56 43.51488 -5.83182 3255 ft 162 kts 288°
2026-05-08 15:56 43.51846 -5.84639 3046 ft 159 kts 287°
2026-05-08 15:56 43.52217 -5.86069 2836 ft 158 kts 290°
2026-05-08 15:56 43.52596 -5.87484 2658 ft 156 kts 289°
2026-05-08 15:57 43.52955 -5.88895 2480 ft 157 kts 288°
2026-05-08 15:57 43.53282 -5.90330 2266 ft 156 kts 288°
2026-05-08 15:57 43.53593 -5.91680 2069 ft 137 kts 289°
2026-05-08 15:57 43.53882 -5.92876 1878 ft 127 kts 290°
2026-05-08 15:58 43.54145 -5.94001 1682 ft 123 kts 290°
2026-05-08 15:58 43.54323 -5.94757 1551 ft 123 kts 288°
2026-05-08 15:58 43.54568 -5.95902 1344 ft 125 kts 288°
2026-05-08 15:58 43.54828 -5.97040 1139 ft 122 kts 290°
2026-05-08 15:59 43.55097 -5.98129 1005 ft 119 kts 291°
2026-05-08 15:59 43.55362 -5.99212 889 ft 119 kts 289°
2026-05-08 15:59 43.55631 -6.00284 736 ft 117 kts 287°
2026-05-08 15:59 43.55840 -6.01250 624 ft 99 kts 289°
2026-05-08 16:00 43.56042 -6.02122 477 ft 90 kts 290°
2026-05-08 16:00 43.56216 -6.02862 425 ft 71 kts 291°
2026-05-08 16:00 43.56345 -6.03398 422 ft 42 kts 287°
2026-05-08 16:00 43.56419 -6.03723 417 ft 36 kts 288°
2026-05-08 16:01 43.56489 -6.04065 422 ft 33 kts 279°
2026-05-08 16:01 43.56482 -6.04271 414 ft 13 kts 258°
2026-05-08 16:01 43.56468 -6.04348 419 ft 9 kts 237°
2026-05-08 16:01 43.56397 -6.04304 414 ft 19 kts 118°
2026-05-08 16:02 43.56352 -6.04143 418 ft 22 kts 104°
2026-05-08 16:02 43.56295 -6.03904 417 ft 29 kts 108°
2026-05-08 16:02 43.56233 -6.03639 420 ft 28 kts 105°
2026-05-08 16:02 43.56170 -6.03363 425 ft 28 kts 107°
2026-05-08 16:03 43.56106 -6.03233 425 ft 12 kts 172°
2026-05-08 16:03 43.56040 -6.03159 423 ft 17 kts 108°
2026-05-08 16:03 43.55998 -6.03003 423 ft 11 kts 155°
2026-05-08 16:03 43.55956 -6.03032 425 ft 6 kts 238°
2026-05-08 16:04 43.55950 -6.03049 418 ft 0 kts 242°